Find Local Weather

World > North America > United States > Florida

Naples, Florida Regional Weather

Lat: 26.14N, Lon: 81.8W
Wx Zone: FLZ069
Warning FLW WEATHER ALERT - (More Info. Click Here) Warning
Feedback

Naples, FL Regional Weather

Expires:201902170500;;057494
ASUS42 KTBW 170417
RWRFL 
FLORIDA REGIONAL WEATHER ROUNDUP
NATIONAL WEATHER SERVICE TAMPA BAY RUSKIN FL
1100 PM EST SAT FEB 16 2019

NOTE: "FAIR" INDICATES FEW OR NO CLOUDS BELOW 12,000 FEET WITH NO
SIGNIFICANT WEATHER AND/OR OBSTRUCTIONS TO VISIBILITY.


FLZ066-069-070-075>078-162-262-165-265-170500-
SOUTHWEST FLORIDA AND KEYS
  
CITY           SKY/WX    TMP DP  RH WIND       PRES   REMARKS
PUNTA GORDA    FAIR      65  62  90 S3        29.96R                  
FT MYERS       FAIR      68  66  93 S3        29.94R                  
SOUTHWEST INTL FAIR      68  66  93 S5        29.95R                  
NAPLES         FAIR      69  66  90 CALM      29.95R                  
MARCO ISLAND   FAIR      66  65  96 S3        29.96S                  
IMMOKALEE      FAIR      66  64  94 S3        29.94R                  
MARATHON       FAIR      77  68  73 SE3       29.96S                  
KEY WEST NAS   FAIR      74  68  81 SE6       29.96S                  
KEY WEST INTL  FAIR      76  69  79 SE5       29.96S                  

STATION/POSITION SKY/WX   TEMP    WIND        PRES    WAVE   SWELL
                          AIR SEA DIR/SP/G            HT/PER HT/PER
                          (F)     (DEG/KT/KT) (MB)    (FT/S) (FT/S)
NAPLES                     73 71  160/  3/  6 1014.1R
26.0N   85.6W              78 80  180/ 12/ 16 1011.8
DRY TORTUGAS               76     160/  7/  7 1014.3S
SAND KEY                   76                 1014.6R
SOMBRERO KEY               77                 1014.1R
LONG KEY                   75 74  200/  2/  4 1014.6R
MOLASSES REEF              76 77  180/  8/  8 1015.1R

$$

SKY/WX - Weather  TMP - Temperature  DP - Dew Point  RH - Relative Humidity
WIND - Wind Direction/Speed PRES - Barometric Pressure VSB - Visibility
WCI - Wind Chill Index E13G22 Wind - East Wind 13 mph/Gusts of 22 mph